Time,TemperatureF,DewpointF,PressureIn,WindDirection,WindDirectionDegrees,WindSpeedMPH,WindSpeedGustMPH,Humidity,HourlyPrecipIn,Conditions,Clouds,dailyrainin,SoftwareType,DateUTC
2013-05-12 00:00:00,49.0,48.0,-100.00,SW,231,7.0,-999.0,96,0.00,,,-99.99,,2013-05-12 07:00:00,
2013-05-12 00:22:00,49.0,48.0,-100.00,SW,231,7.0,-999.0,96,0.00,,,-99.99,,2013-05-12 07:22:00,
2013-05-12 00:32:00,49.0,48.0,-100.00,SW,231,7.0,-999.0,96,0.00,,,-99.99,,2013-05-12 07:32:00,
2013-05-12 00:42:00,49.0,48.0,-100.00,SW,231,7.0,-999.0,96,0.00,,,-99.99,,2013-05-12 07:42:00,
2013-05-12 00:52:00,49.0,48.0,-100.00,SW,231,7.0,-999.0,96,0.00,,,-99.99,,2013-05-12 07:52:00,
2013-05-12 01:00:00,49.0,47.0,-100.00,NE,35,4.0,-999.0,96,0.00,,,-99.99,,2013-05-12 08:00:00,
2013-05-12 01:21:00,49.0,47.0,-100.00,NE,35,4.0,-999.0,96,0.00,,,-99.99,,2013-05-12 08:21:00,
2013-05-12 01:32:00,49.0,47.0,-100.00,NE,35,4.0,-999.0,96,0.00,,,-99.99,,2013-05-12 08:32:00,
2013-05-12 01:42:00,49.0,47.0,-100.00,NE,35,4.0,-999.0,96,0.00,,,-99.99,,2013-05-12 08:42:00,
2013-05-12 01:53:00,49.0,47.0,-100.00,NE,35,4.0,-999.0,96,0.00,,,-99.99,,2013-05-12 08:53:00,
2013-05-12 02:00:00,48.0,47.0,-100.00,NNE,30,6.0,-999.0,95,0.00,,,-99.99,,2013-05-12 09:00:00,
2013-05-12 02:21:00,48.0,47.0,-100.00,NNE,30,6.0,-999.0,95,0.00,,,-99.99,,2013-05-12 09:21:00,
2013-05-12 02:33:00,48.0,47.0,-100.00,NNE,30,6.0,-999.0,95,0.00,,,-99.99,,2013-05-12 09:33:00,
2013-05-12 02:43:00,48.0,47.0,-100.00,NNE,30,6.0,-999.0,95,0.00,,,-99.99,,2013-05-12 09:43:00,
2013-05-12 02:53:00,48.0,47.0,-100.00,NNE,30,6.0,-999.0,95,0.00,,,-99.99,,2013-05-12 09:53:00,
2013-05-12 03:00:00,46.0,45.0,-100.00,NNE,33,2.0,-999.0,96,0.00,,,-99.99,,2013-05-12 10:00:00,
2013-05-12 03:23:00,46.0,45.0,-100.00,NNE,33,2.0,-999.0,96,0.00,,,-99.99,,2013-05-12 10:23:00,
2013-05-12 03:33:00,46.0,45.0,-100.00,NNE,33,2.0,-999.0,96,0.00,,,-99.99,,2013-05-12 10:33:00,
2013-05-12 03:42:00,46.0,45.0,-100.00,NNE,33,2.0,-999.0,96,0.00,,,-99.99,,2013-05-12 10:42:00,
2013-05-12 03:52:00,46.0,45.0,-100.00,NNE,33,2.0,-999.0,96,0.00,,,-99.99,,2013-05-12 10:52:00,
2013-05-12 04:00:00,46.0,45.0,-100.00,NNW,335,2.0,-999.0,96,0.00,,,-99.99,,2013-05-12 11:00:00,
2013-05-12 04:22:00,46.0,45.0,-100.00,NNW,335,2.0,-999.0,96,0.00,,,-99.99,,2013-05-12 11:22:00,
2013-05-12 04:32:00,46.0,45.0,-100.00,NNW,335,2.0,-999.0,96,0.00,,,-99.99,,2013-05-12 11:32:00,
2013-05-12 04:42:00,46.0,45.0,-100.00,NNW,335,2.0,-999.0,96,0.00,,,-99.99,,2013-05-12 11:42:00,
2013-05-12 04:52:00,46.0,45.0,-100.00,NNW,335,2.0,-999.0,96,0.00,,,-99.99,,2013-05-12 11:52:00,
2013-05-12 05:00:00,45.0,44.0,-100.00,North,355,1.0,-999.0,96,0.00,,,-99.99,,2013-05-12 12:00:00,
2013-05-12 05:22:00,45.0,44.0,-100.00,North,355,1.0,-999.0,96,0.00,,,-99.99,,2013-05-12 12:22:00,
2013-05-12 05:32:00,45.0,44.0,-100.00,North,355,1.0,-999.0,96,0.00,,,-99.99,,2013-05-12 12:32:00,
2013-05-12 05:42:00,45.0,44.0,-100.00,North,355,1.0,-999.0,96,0.00,,,-99.99,,2013-05-12 12:42:00,
2013-05-12 05:52:00,45.0,44.0,-100.00,North,355,1.0,-999.0,96,0.00,,,-99.99,,2013-05-12 12:52:00,
2013-05-12 06:00:00,45.0,44.0,-100.00,NNW,344,2.0,-999.0,96,0.00,,,-99.99,,2013-05-12 13:00:00,
2013-05-12 06:21:00,45.0,44.0,-100.00,NNW,344,2.0,-999.0,96,0.00,,,-99.99,,2013-05-12 13:21:00,
2013-05-12 06:32:00,45.0,44.0,-100.00,NNW,344,2.0,-999.0,96,0.00,,,-99.99,,2013-05-12 13:32:00,
2013-05-12 06:42:00,45.0,44.0,-100.00,NNW,344,2.0,-999.0,96,0.00,,,-99.99,,2013-05-12 13:42:00,
2013-05-12 06:52:00,45.0,44.0,-100.00,NNW,344,2.0,-999.0,96,0.00,,,-99.99,,2013-05-12 13:52:00,
2013-05-12 07:00:00,44.0,43.0,-100.00,North,353,1.0,-999.0,96,0.00,,,-99.99,,2013-05-12 14:00:00,
2013-05-12 07:21:00,44.0,43.0,-100.00,North,353,1.0,-999.0,96,0.00,,,-99.99,,2013-05-12 14:21:00,
2013-05-12 07:32:00,44.0,43.0,-100.00,North,353,1.0,-999.0,96,0.00,,,-99.99,,2013-05-12 14:32:00,
2013-05-12 07:42:00,44.0,43.0,-100.00,North,353,1.0,-999.0,96,0.00,,,-99.99,,2013-05-12 14:42:00,
2013-05-12 07:52:00,44.0,43.0,-100.00,North,353,1.0,-999.0,96,0.00,,,-99.99,,2013-05-12 14:52:00,
2013-05-12 08:00:00,47.0,46.0,-100.00,South,182,2.0,-999.0,96,0.00,,,-99.99,,2013-05-12 15:00:00,
2013-05-12 08:21:00,47.0,46.0,-100.00,South,182,2.0,-999.0,96,0.00,,,-99.99,,2013-05-12 15:21:00,
2013-05-12 08:34:00,47.0,46.0,-100.00,South,182,2.0,-999.0,96,0.00,,,-99.99,,2013-05-12 15:34:00,
2013-05-12 08:42:00,47.0,46.0,-100.00,South,182,2.0,-999.0,96,0.00,,,-99.99,,2013-05-12 15:42:00,
2013-05-12 08:53:00,47.0,46.0,-100.00,South,182,2.0,-999.0,96,0.00,,,-99.99,,2013-05-12 15:53:00,
2013-05-12 09:00:00,51.0,49.0,-100.00,SSW,193,4.0,-999.0,95,0.00,,,-99.99,,2013-05-12 16:00:00,
2013-05-12 09:23:00,51.0,49.0,-100.00,SSW,193,4.0,-999.0,95,0.00,,,-99.99,,2013-05-12 16:23:00,
2013-05-12 09:33:00,51.0,49.0,-100.00,SSW,193,4.0,-999.0,95,0.00,,,-99.99,,2013-05-12 16:33:00,
2013-05-12 09:42:00,51.0,49.0,-100.00,SSW,193,4.0,-999.0,95,0.00,,,-99.99,,2013-05-12 16:42:00,
2013-05-12 09:52:00,51.0,49.0,-100.00,SSW,193,4.0,-999.0,95,0.00,,,-99.99,,2013-05-12 16:52:00,
2013-05-12 10:00:00,56.0,53.0,-100.00,SW,224,8.0,-999.0,89,0.00,,,-99.99,,2013-05-12 17:00:00,
2013-05-12 10:22:00,56.0,53.0,-100.00,SW,224,8.0,-999.0,89,0.00,,,-99.99,,2013-05-12 17:22:00,
2013-05-12 10:32:00,56.0,53.0,-100.00,SW,224,8.0,-999.0,89,0.00,,,-99.99,,2013-05-12 17:32:00,
2013-05-12 10:42:00,56.0,53.0,-100.00,SW,224,8.0,-999.0,89,0.00,,,-99.99,,2013-05-12 17:42:00,
2013-05-12 10:52:00,56.0,53.0,-100.00,SW,224,8.0,-999.0,89,0.00,,,-99.99,,2013-05-12 17:52:00,
2013-05-12 11:00:00,64.0,54.0,-100.00,SW,226,8.0,-999.0,69,0.00,,,-99.99,,2013-05-12 18:00:00,
2013-05-12 11:22:00,64.0,54.0,-100.00,SW,226,8.0,-999.0,69,0.00,,,-99.99,,2013-05-12 18:22:00,
2013-05-12 11:32:00,64.0,54.0,-100.00,SW,226,8.0,-999.0,69,0.00,,,-99.99,,2013-05-12 18:32:00,
2013-05-12 11:42:00,64.0,54.0,-100.00,SW,226,8.0,-999.0,69,0.00,,,-99.99,,2013-05-12 18:42:00,
2013-05-12 11:52:00,64.0,54.0,-100.00,SW,226,8.0,-999.0,69,0.00,,,-99.99,,2013-05-12 18:52:00,
2013-05-12 12:00:00,64.0,55.0,-100.00,SW,233,8.0,-999.0,72,0.00,,,-99.99,,2013-05-12 19:00:00,
2013-05-12 12:22:00,64.0,55.0,-100.00,SW,233,8.0,-999.0,72,0.00,,,-99.99,,2013-05-12 19:22:00,
2013-05-12 12:32:00,64.0,55.0,-100.00,SW,233,8.0,-999.0,72,0.00,,,-99.99,,2013-05-12 19:32:00,
2013-05-12 12:42:00,64.0,55.0,-100.00,SW,233,8.0,-999.0,72,0.00,,,-99.99,,2013-05-12 19:42:00,
2013-05-12 12:52:00,64.0,55.0,-100.00,SW,233,8.0,-999.0,72,0.00,,,-99.99,,2013-05-12 19:52:00,
2013-05-12 13:00:00,64.0,55.0,-100.00,WSW,237,13.0,-999.0,72,0.00,,,-99.99,,2013-05-12 20:00:00,
2013-05-12 13:22:00,64.0,55.0,-100.00,WSW,237,13.0,-999.0,72,0.00,,,-99.99,,2013-05-12 20:22:00,
2013-05-12 13:32:00,64.0,55.0,-100.00,WSW,237,13.0,-999.0,72,0.00,,,-99.99,,2013-05-12 20:32:00,
2013-05-12 13:42:00,64.0,55.0,-100.00,WSW,237,13.0,-999.0,72,0.00,,,-99.99,,2013-05-12 20:42:00,
2013-05-12 13:52:00,64.0,55.0,-100.00,WSW,237,13.0,-999.0,72,0.00,,,-99.99,,2013-05-12 20:52:00,
2013-05-12 14:00:00,65.0,55.0,-100.00,SW,214,13.0,-999.0,71,0.00,,,-99.99,,2013-05-12 21:00:00,
2013-05-12 14:22:00,65.0,55.0,-100.00,SW,214,13.0,-999.0,71,0.00,,,-99.99,,2013-05-12 21:22:00,
2013-05-12 14:33:00,65.0,55.0,-100.00,SW,214,13.0,-999.0,71,0.00,,,-99.99,,2013-05-12 21:33:00,
2013-05-12 14:42:00,65.0,55.0,-100.00,SW,214,13.0,-999.0,71,0.00,,,-99.99,,2013-05-12 21:42:00,
2013-05-12 14:53:00,65.0,55.0,-100.00,SW,214,13.0,-999.0,71,0.00,,,-99.99,,2013-05-12 21:53:00,
2013-05-12 15:00:00,65.0,55.0,-100.00,SW,219,17.0,-999.0,68,0.00,,,-99.99,,2013-05-12 22:00:00,
2013-05-12 15:23:00,65.0,55.0,-100.00,SW,219,17.0,-999.0,68,0.00,,,-99.99,,2013-05-12 22:23:00,
2013-05-12 15:33:00,65.0,55.0,-100.00,SW,219,17.0,-999.0,68,0.00,,,-99.99,,2013-05-12 22:33:00,
2013-05-12 15:42:00,65.0,55.0,-100.00,SW,219,17.0,-999.0,68,0.00,,,-99.99,,2013-05-12 22:42:00,
2013-05-12 15:52:00,65.0,55.0,-100.00,SW,219,17.0,-999.0,68,0.00,,,-99.99,,2013-05-12 22:52:00,
2013-05-12 16:00:00,64.0,53.0,-100.00,SSW,208,17.0,-999.0,68,0.00,,,-99.99,,2013-05-12 23:00:00,
2013-05-12 16:22:00,64.0,53.0,-100.00,SSW,208,17.0,-999.0,68,0.00,,,-99.99,,2013-05-12 23:22:00,
2013-05-12 16:32:00,64.0,53.0,-100.00,SSW,208,17.0,-999.0,68,0.00,,,-99.99,,2013-05-12 23:32:00,
2013-05-12 16:42:00,64.0,53.0,-100.00,SSW,208,17.0,-999.0,68,0.00,,,-99.99,,2013-05-12 23:42:00,
2013-05-12 16:52:00,64.0,53.0,-100.00,SSW,208,17.0,-999.0,68,0.00,,,-99.99,,2013-05-12 23:52:00,
2013-05-12 17:22:00,62.0,53.0,-100.00,SSW,209,17.0,-999.0,70,0.00,,,-99.99,,2013-05-13 00:22:00,
2013-05-12 17:32:00,62.0,53.0,-100.00,SSW,209,17.0,-999.0,70,0.00,,,-99.99,,2013-05-13 00:32:00,
2013-05-12 18:22:00,61.0,52.0,-100.00,SSW,198,13.0,-999.0,73,0.00,,,-99.99,,2013-05-13 01:22:00,
2013-05-12 18:32:00,61.0,52.0,-100.00,SSW,198,13.0,-999.0,73,0.00,,,-99.99,,2013-05-13 01:32:00,
2013-05-12 18:42:00,61.0,52.0,-100.00,SSW,198,13.0,-999.0,73,0.00,,,-99.99,,2013-05-13 01:42:00,
2013-05-12 18:52:00,61.0,52.0,-100.00,SSW,198,13.0,-999.0,73,0.00,,,-99.99,,2013-05-13 01:52:00,
2013-05-12 19:00:00,60.0,52.0,-100.00,SW,224,16.0,-999.0,75,0.00,,,-99.99,,2013-05-13 02:00:00,
2013-05-12 19:21:00,60.0,52.0,-100.00,SW,224,16.0,-999.0,75,0.00,,,-99.99,,2013-05-13 02:21:00,
2013-05-12 19:32:00,60.0,52.0,-100.00,SW,224,16.0,-999.0,75,0.00,,,-99.99,,2013-05-13 02:32:00,
2013-05-12 20:00:00,56.0,51.0,-100.00,SW,230,14.0,-999.0,83,0.00,,,-99.99,,2013-05-13 03:00:00,
2013-05-12 20:22:00,56.0,51.0,-100.00,SW,230,14.0,-999.0,83,0.00,,,-99.99,,2013-05-13 03:22:00,
2013-05-12 20:33:00,56.0,51.0,-100.00,SW,230,14.0,-999.0,83,0.00,,,-99.99,,2013-05-13 03:33:00,
2013-05-12 20:42:00,56.0,51.0,-100.00,SW,230,14.0,-999.0,83,0.00,,,-99.99,,2013-05-13 03:42:00,
2013-05-12 20:53:00,56.0,51.0,-100.00,SW,230,14.0,-999.0,83,0.00,,,-99.99,,2013-05-13 03:53:00,